Terminal Aerodrome Forecast
Issued by NWS Huntsville, AL

Home | Current Version | Previous Version | Text Only | Print | Product List | Glossary On
Versions: 1 2 3 4 5 6 7 8 9 10 11 12 13 14 15 16 17 18 19 20 21 22 23 24 25 26 27 28 29 30 31 32
000
FTUS44 KHUN 190045 AAA
TAFHSV
TAF AMD
KHSV 190045Z 1901/1924 30017G27KT P6SM BKN025
     FM190300 33015G25KT P6SM BKN040
     FM190500 33010KT P6SM SCT250
     FM191400 33014G19KT P6SM SKC=

USA.gov is the U.S. government's official web portal to all federal, state and local government web resources and services.